Wind_Speed
15 15 14 14 15 14 14 14 15 16 18 21 21 21 22 21 21 21 21 22 21 20 19 19 18 18 17 16 16 16 16 16 16 16 15 15 16 15 15 14 13 13 12 12
16 15 15 16 16 16 17 18 17 17 18 20 22 23 25 23 23 23 23 23 22 21 22 21 20 20 19 18 18 18 17 17 17 17 16 16 16 16 15 15 15 14 14 13
18 17 18 18 18 19 20 20 19 20 19 21 22 23 23 23 22 23 24 23 24 23 22 22 20 20 20 20 19 20 19 19 18 18 18 17 18 17 17 17 16 16 16 15
19 19 19 19 21 21 20 20 21 20 20 22 22 23 22 22 22 23 24 24 25 25 23 22 22 21 21 21 22 21 21 20 20 20 19 19 19 19 19 19 18 18 17 17
19 20 20 20 21 20 20 19 20 20 21 22 22 24 23 23 23 23 23 23 25 26 25 24 24 23 24 24 24 23 23 22 22 22 21 20 20 21 21 20 20 20 19 18
18 19 20 20 20 20 20 19 19 19 20 22 20 22 24 24 23 23 24 24 25 26 26 26 26 26 26 25 25 24 24 25 24 24 24 23 22 22 22 21 21 21 21 19
17 18 19 20 19 19 19 18 18 19 20 21 19 21 23 25 22 24 27 28 27 27 28 28 27 28 27 27 27 27 25 25 25 25 25 25 24 24 23 23 22 21 21 20
16 18 18 19 19 19 19 19 20 19 19 19 19 21 22 23 23 24 28 29 29 29 28 28 28 29 29 28 28 28 27 26 26 26 26 26 26 25 25 24 23 23 22 21
15 17 17 19 20 20 20 20 21 21 21 22 21 21 24 25 25 26 29 30 30 29 29 29 28 29 30 29 28 28 28 28 28 27 27 27 27 28 27 26 25 25 24 23
19 19 16 18 20 20 21 21 20 22 23 23 23 23 26 26 27 28 30 30 32 30 29 29 29 30 30 30 29 29 30 30 30 29 29 28 28 28 28 27 26 26 25 25
20 21 19 19 20 20 21 22 23 24 24 25 25 26 28 29 29 29 30 31 31 30 28 28 28 30 30 31 31 31 31 32 31 31 31 31 30 29 29 28 28 27 26 25
21 22 22 21 20 21 22 22 22 25 25 25 26 28 28 30 31 32 32 31 31 33 31 30 30 30 30 31 32 31 31 32 32 32 32 32 31 30 30 30 29 27 26 26
22 22 22 20 19 21 23 22 22 24 26 26 27 29 29 31 33 34 36 34 33 34 33 31 30 31 31 32 32 32 31 32 32 32 33 33 32 32 32 30 29 27 27 27
21 22 21 20 18 19 22 23 23 25 26 27 27 30 31 32 32 33 34 34 33 33 33 32 31 31 31 31 32 32 32 32 32 32 32 33 33 33 32 30 28 27 28 28
22 22 21 21 21 21 20 22 23 24 26 28 28 30 32 32 32 33 33 33 33 32 32 31 31 32 32 32 33 33 33 33 33 33 32 32 33 33 33 31 29 28 28 28
22 22 22 21 21 22 22 22 23 24 25 27 29 31 31 32 34 35 34 34 32 32 32 32 32 32 32 32 32 32 32 33 34 33 33 32 33 33 32 31 29 28 28 27
23 22 21 21 21 22 22 23 24 24 25 27 29 30 31 31 33 34 34 34 33 32 31 31 32 32 32 32 33 33 33 34 33 33 33 32 32 32 31 30 29 28 28 27
22 22 21 20 20 21 22 23 24 25 25 27 29 29 29 30 31 33 33 32 31 32 31 31 31 32 32 32 33 33 33 34 33 33 32 32 31 31 30 31 30 29 28 27
20 20 20 19 20 21 21 23 24 24 26 27 27 27 29 30 31 32 32 32 32 32 31 31 31 31 31 31 32 32 33 33 33 33 32 31 31 30 29 30 30 29 28 28
19 20 20 19 20 21 22 23 23 24 26 24 25 26 26 27 27 29 30 30 30 31 30 28 29 29 30 30 31 31 32 32 32 32 32 31 30 29 29 29 29 29 29 28
21 21 20 20 20 21 23 23 23 24 25 25 25 26 26 27 26 28 28 29 29 28 28 28 27 28 28 28 29 29 30 31 31 31 31 31 30 30 30 30 30 29 28 28
22 21 21 22 22 23 23 24 24 24 24 25 25 26 27 27 28 28 28 28 28 27 27 26 25 25 26 27 28 28 29 30 31 30 29 29 30 30 30 29 29 28 28 28
22 22 22 23 23 23 24 24 23 24 25 25 26 26 27 27 27 27 26 27 27 26 25 24 24 24 25 26 27 27 29 29 29 28 28 28 29 28 28 29 29 29 28 28
21 22 23 23 22 23 24 24 25 24 25 25 26 27 28 27 27 27 27 27 27 26 25 24 24 24 24 24 25 26 27 27 27 27 27 26 27 27 28 28 28 28 28 28
21 22 22 23 23 24 24 24 25 25 26 26 26 26 26 26 26 26 26 26 26 26 25 24 24 24 23 24 25 25 24 24 24 25 26 26 27 27 27 27 27 28 28 28
22 22 22 23 23 23 22 22 23 23 24 24 24 24 24 24 25 25 24 25 25 25 25 24 24 24 24 23 23 23 23 24 24 24 25 26 27 27 27 27 28 29 29 29
Wind_Direction
245 245 246 245 245 242 243 245 251 255 261 262 265 265 261 265 269 270 273 276 276 276 281 282 283 284 286 288 286 286 286 287 288 287 288 290 291 292 294 297 298 299 298 297
249 251 250 248 251 253 250 249 247 248 255 261 265 266 263 261 265 270 270 273 274 274 276 279 280 281 283 284 283 282 282 284 284 284 286 288 289 288 290 293 294 295 294 291
247 250 253 252 252 254 255 255 254 258 261 265 267 268 268 269 265 266 269 271 274 273 271 274 279 281 281 282 282 281 281 281 281 282 284 285 285 285 285 287 290 288 288 287
247 249 251 251 250 251 253 258 258 257 259 263 269 272 270 270 266 268 272 270 271 273 271 273 276 280 281 282 282 280 279 279 279 280 281 281 281 283 283 282 284 285 283 281
247 249 251 252 253 252 252 254 257 258 259 258 262 270 272 268 267 272 276 275 272 272 274 275 274 275 277 278 281 279 279 278 276 277 277 279 279 279 281 282 282 282 281 278
244 249 253 253 253 254 255 254 258 263 265 265 265 266 266 266 269 273 277 277 275 275 275 275 273 274 275 276 277 278 277 274 273 273 275 276 276 277 280 279 280 280 277 278
253 251 251 255 255 254 255 258 261 263 266 272 274 269 266 267 266 267 273 275 275 276 274 272 272 273 274 275 276 275 275 273 271 271 271 273 274 275 277 278 277 277 278 278
259 260 259 259 258 258 258 257 258 259 263 270 272 271 270 266 262 266 268 271 273 273 273 273 274 273 273 273 274 273 273 273 271 269 269 270 271 272 274 276 276 276 278 277
248 257 263 261 257 257 258 258 260 262 263 265 265 266 271 267 264 263 267 271 270 270 272 276 275 273 272 271 271 270 272 273 271 270 269 268 269 271 273 274 275 275 275 276
246 246 250 259 261 259 259 256 257 260 262 265 264 262 266 269 266 268 268 270 273 272 272 273 275 273 271 270 270 270 271 273 273 271 270 270 270 270 272 271 272 273 273 273
253 252 250 249 256 261 260 259 255 256 256 261 264 265 266 266 267 265 267 267 271 272 274 272 271 271 271 270 270 271 271 272 272 271 270 269 270 271 272 271 271 271 270 272
259 259 257 255 256 257 257 258 258 258 258 258 261 263 264 265 266 265 267 269 270 273 274 272 271 270 271 271 272 271 271 271 271 270 269 268 269 270 271 271 271 268 269 270
262 264 265 264 262 259 258 257 258 260 262 262 262 264 263 264 266 266 267 269 270 273 274 272 271 271 270 270 270 270 270 270 270 269 267 267 268 269 270 271 271 269 268 269
265 265 264 263 260 260 259 257 260 262 263 265 263 264 265 265 265 267 269 270 271 273 274 272 271 271 270 269 269 269 269 270 271 270 268 268 267 268 268 268 268 268 268 268
267 268 268 264 260 259 260 258 258 259 262 264 266 268 269 268 268 270 272 273 272 272 270 269 269 269 270 269 268 270 268 269 271 270 269 268 267 267 265 265 265 265 267 268
273 271 269 267 264 260 262 264 266 267 266 266 266 267 268 266 267 269 272 273 273 272 270 270 271 271 270 270 269 269 270 270 271 270 268 268 266 264 264 262 262 264 266 269
274 275 273 271 269 266 263 262 265 270 272 270 268 267 268 269 268 267 271 274 275 274 273 273 271 270 269 269 270 269 270 270 271 269 267 265 265 265 263 261 262 263 265 268
273 275 276 275 270 269 269 271 270 270 270 270 272 270 269 268 269 271 271 273 275 276 275 274 271 270 269 269 270 271 270 269 269 268 266 264 262 263 261 260 261 262 262 265
273 277 279 276 272 272 274 275 273 271 269 271 270 268 269 273 273 275 275 275 276 275 275 274 272 270 269 269 270 271 270 269 268 266 265 264 262 260 260 260 259 260 260 261
272 276 278 278 273 274 275 274 275 275 274 275 275 275 274 275 277 276 276 276 278 278 278 274 270 269 269 270 269 268 268 267 266 265 264 263 260 258 259 261 260 261 260 259
275 278 278 278 275 275 277 279 278 277 277 278 280 278 278 278 279 278 280 281 283 282 279 277 272 269 270 271 269 267 267 268 266 264 263 262 260 259 259 260 260 260 260 260
272 276 276 276 278 275 279 279 279 278 281 281 280 279 279 280 281 281 281 282 283 284 282 278 274 274 272 271 270 267 268 268 266 264 262 260 258 257 258 257 258 259 260 261
270 271 272 276 279 276 277 277 280 279 280 281 280 280 280 281 280 280 281 282 283 284 285 282 279 277 274 273 272 269 269 268 265 261 261 258 256 256 256 257 257 258 259 259
271 271 274 277 279 279 280 278 279 281 282 283 282 282 280 280 281 281 281 282 284 284 283 282 281 279 276 274 273 271 269 266 264 262 261 259 259 257 256 257 256 256 258 258
271 276 277 277 277 276 277 278 280 282 283 283 285 284 284 281 282 284 284 283 283 283 283 281 280 278 276 275 275 272 269 267 264 262 259 257 257 257 257 256 255 256 258 257
273 274 275 275 276 277 277 278 281 283 283 283 285 286 285 284 284 285 285 284 284 283 281 279 277 277 276 275 273 272 270 267 267 266 263 259 258 258 258 258 257 256 256 257
Height
5868 5871 5872 5874 5875 5877 5879 5880 5883 5884 5884 5883 5883 5883 5883 5884 5884 5883 5883 5882 5882 5883 5882 5882 5882 5881 5881 5881 5881 5881 5880 5880 5879 5879 5879 5878 5878 5877 5877 5876 5875 5875 5874 5873
5865 5867 5870 5870 5872 5873 5875 5876 5878 5879 5879 5879 5878 5878 5878 5878 5880 5880 5879 5878 5878 5879 5878 5878 5878 5878 5877 5878 5878 5877 5877 5876 5876 5876 5875 5875 5875 5874 5874 5874 5873 5872 5872 5871
5862 5865 5865 5866 5868 5869 5871 5872 5873 5874 5874 5873 5874 5873 5873 5873 5874 5875 5874 5874 5874 5874 5874 5873 5873 5873 5873 5873 5873 5873 5873 5873 5872 5872 5872 5872 5871 5871 5871 5871 5870 5869 5869 5869
5858 5861 5862 5863 5864 5865 5866 5868 5868 5869 5869 5869 5870 5868 5868 5868 5868 5869 5869 5869 5868 5868 5868 5869 5869 5869 5868 5868 5868 5868 5868 5869 5868 5868 5868 5868 5868 5868 5867 5867 5867 5866 5866 5865
5854 5856 5857 5858 5860 5860 5861 5863 5863 5863 5864 5864 5864 5865 5864 5863 5863 5863 5863 5864 5864 5863 5863 5864 5864 5864 5863 5863 5863 5863 5863 5864 5864 5864 5863 5863 5864 5863 5863 5863 5863 5862 5862 5862
5849 5851 5852 5854 5855 5856 5856 5857 5857 5858 5858 5859 5860 5860 5860 5858 5858 5858 5858 5859 5858 5858 5858 5858 5858 5857 5857 5857 5858 5858 5858 5859 5859 5859 5858 5858 5859 5859 5858 5858 5858 5858 5857 5857
5845 5846 5847 5848 5849 5851 5852 5853 5853 5854 5854 5854 5856 5855 5855 5854 5853 5853 5853 5853 5852 5852 5852 5852 5852 5852 5851 5852 5851 5852 5852 5852 5853 5853 5853 5853 5853 5853 5853 5853 5853 5853 5853 5853
5842 5843 5843 5844 5845 5846 5847 5849 5850 5850 5851 5852 5851 5850 5850 5849 5848 5848 5848 5847 5846 5845 5845 5845 5846 5845 5845 5845 5845 5845 5845 5846 5846 5847 5847 5847 5847 5847 5848 5847 5847 5848 5848 5848
5838 5839 5839 5839 5839 5840 5842 5843 5844 5845 5844 5846 5846 5846 5844 5842 5841 5841 5840 5840 5839 5839 5838 5839 5839 5839 5838 5838 5838 5837 5838 5839 5839 5839 5840 5841 5841 5841 5841 5842 5842 5842 5843 5843
5831 5832 5834 5835 5834 5835 5837 5838 5839 5839 5839 5839 5841 5840 5839 5836 5835 5834 5833 5832 5832 5831 5831 5831 5832 5831 5832 5831 5831 5831 5831 5832 5832 5833 5833 5834 5834 5835 5834 5835 5835 5835 5836 5837
5825 5826 5828 5829 5829 5830 5831 5832 5832 5832 5833 5833 5833 5835 5831 5830 5828 5826 5824 5823 5824 5822 5823 5824 5824 5824 5824 5824 5824 5824 5824 5824 5825 5826 5826 5827 5828 5828 5828 5828 5829 5828 5829 5830
5819 5820 5821 5822 5823 5823 5824 5825 5825 5825 5825 5825 5825 5827 5823 5822 5821 5819 5816 5815 5815 5815 5817 5817 5817 5817 5817 5816 5816 5816 5816 5817 5817 5818 5818 5819 5820 5820 5821 5821 5821 5821 5823 5823
5814 5814 5815 5816 5818 5817 5816 5817 5817 5818 5818 5817 5817 5819 5814 5813 5813 5811 5809 5808 5808 5808 5809 5809 5809 5809 5809 5808 5808 5808 5808 5808 5809 5809 5810 5810 5811 5812 5813 5813 5814 5814 5815 5816
5807 5808 5809 5810 5811 5809 5809 5809 5810 5810 5809 5809 5809 5808 5805 5804 5802 5802 5801 5800 5800 5800 5800 5800 5801 5800 5800 5800 5799 5799 5800 5801 5801 5801 5801 5802 5803 5803 5804 5805 5806 5807 5808 5809
5801 5802 5802 5803 5802 5802 5802 5802 5802 5802 5802 5802 5801 5799 5797 5795 5794 5794 5793 5793 5793 5791 5791 5791 5792 5791 5792 5792 5792 5791 5792 5792 5793 5793 5793 5793 5794 5795 5796 5797 5798 5799 5800 5801
5795 5796 5796 5796 5796 5796 5795 5795 5795 5795 5794 5793 5792 5791 5790 5788 5787 5785 5785 5784 5783 5782 5782 5783 5783 5782 5783 5783 5783 5783 5783 5783 5784 5784 5784 5784 5785 5786 5787 5788 5789 5791 5792 5793
5789 5789 5789 5790 5789 5788 5788 5788 5788 5788 5786 5785 5784 5783 5781 5779 5778 5777 5777 5776 5774 5773 5773 5774 5774 5774 5774 5774 5774 5774 5774 5775 5775 5775 5775 5776 5776 5777 5778 5780 5781 5783 5784 5785
5783 5783 5783 5783 5783 5782 5784 5782 5781 5780 5779 5777 5776 5774 5772 5770 5769 5769 5768 5767 5767 5766 5765 5765 5765 5765 5765 5765 5765 5765 5765 5765 5766 5766 5766 5767 5767 5769 5770 5772 5773 5775 5776 5778
5777 5777 5777 5777 5777 5776 5776 5775 5773 5772 5771 5770 5768 5766 5764 5762 5762 5761 5760 5759 5758 5757 5755 5756 5756 5756 5756 5756 5756 5756 5756 5756 5756 5756 5757 5758 5759 5760 5762 5763 5765 5766 5768 5770
5772 5772 5772 5771 5770 5770 5770 5768 5767 5767 5764 5763 5761 5759 5757 5756 5756 5754 5752 5751 5750 5748 5747 5746 5747 5747 5747 5748 5747 5747 5746 5746 5746 5747 5748 5749 5750 5752 5753 5755 5756 5758 5760 5761
5766 5766 5766 5766 5765 5764 5763 5762 5762 5761 5758 5756 5754 5753 5751 5750 5748 5747 5745 5743 5742 5740 5739 5738 5738 5738 5739 5738 5738 5738 5737 5737 5737 5737 5738 5739 5741 5743 5744 5746 5748 5750 5752 5754
5762 5761 5761 5760 5759 5760 5757 5756 5756 5754 5751 5749 5748 5747 5745 5743 5742 5740 5739 5737 5735 5734 5732 5731 5730 5730 5730 5730 5729 5729 5729 5729 5728 5728 5730 5731 5732 5734 5736 5738 5740 5742 5744 5746
5757 5757 5755 5755 5755 5753 5750 5749 5748 5747 5745 5744 5742 5741 5739 5737 5735 5734 5732 5730 5729 5727 5726 5724 5723 5722 5722 5721 5720 5720 5720 5719 5719 5719 5721 5723 5724 5726 5728 5730 5732 5734 5736 5738
5751 5750 5750 5749 5747 5746 5745 5743 5742 5741 5739 5738 5736 5733 5732 5730 5729 5727 5726 5724 5722 5721 5719 5718 5716 5715 5714 5714 5713 5712 5712 5711 5711 5712 5713 5714 5716 5718 5720 5722 5724 5726 5728 5730
5745 5744 5744 5743 5741 5740 5738 5737 5736 5735 5733 5731 5729 5727 5725 5724 5722 5720 5719 5717 5716 5714 5713 5711 5710 5708 5707 5706 5705 5705 5704 5704 5704 5705 5705 5706 5708 5710 5712 5714 5716 5718 5720 5722
5739 5739 5737 5736 5734 5733 5732 5731 5729 5728 5727 5725 5723 5721 5719 5717 5715 5714 5712 5710 5708 5707 5706 5704 5703 5701 5700 5699 5698 5698 5698 5698 5697 5697 5698 5699 5701 5702 5704 5706 5708 5709 5712 5713